| time (UTC) | temp F | wind direction | speed MPH | gust MPH | rain 1hr in | rain 24hr in | rain mn in | humidity % | barometer mb |
| 20260508163102 | 59 | 167 | 1.0 | 10.0 | 0.00 | 0.00 | 0.00 | 38 | 1005.6 |
| 20260508161604 | 58 | 193 | 6.0 | 10.0 | 0.00 | 0.00 | 0.00 | 36 | 1005.8 |
| 20260508160049 | 56 | 157 | 3.0 | 8.0 | 0.00 | 0.00 | 0.00 | 38 | 1005.9 |
| 20260508154547 | 55 | 146 | 6.0 | 11.0 | 0.00 | 0.00 | 0.00 | 38 | 1006.0 |
| 20260508153047 | 55 | 255 | 6.0 | 9.0 | 0.00 | 0.00 | 0.00 | 37 | 1006.1 |
| 20260508151542 | 54 | 232 | 5.0 | 9.0 | 0.00 | 0.00 | 0.00 | 39 | 1006.4 |
| 20260508150039 | 53 | 194 | 5.0 | 12.0 | 0.00 | 0.00 | 0.00 | 40 | 1006.6 |
| 20260508144639 | 53 | 192 | 8.0 | 12.0 | 0.00 | 0.00 | 0.00 | 41 | 1006.6 |
| 20260508143044 | 53 | 171 | 7.0 | 11.0 | 0.00 | 0.00 | 0.00 | 42 | 1006.7 |
| 20260508141533 | 52 | 192 | 5.0 | 10.0 | 0.00 | 0.00 | 0.00 | 43 | 1006.7 |
| 20260508140034 | 51 | 223 | 5.0 | 12.0 | 0.00 | 0.00 | 0.00 | 44 | 1007.0 |
| 20260508134525 | 49 | 208 | 3.0 | 6.0 | 0.00 | 0.00 | 0.00 | 52 | 1007.1 |
| 20260508133022 | 47 | 188 | 4.0 | 7.0 | 0.00 | 0.00 | 0.00 | 56 | 1007.3 |
| 20260508131518 | 46 | 198 | 3.0 | 6.0 | 0.00 | 0.00 | 0.00 | 58 | 1007.5 |
| 20260508130014 | 45 | 186 | 3.0 | 6.0 | 0.00 | 0.00 | 0.00 | 61 | 1007.5 |
| 20260508124510 | 42 | 177 | 5.0 | 7.0 | 0.00 | 0.00 | 0.00 | 69 | 1007.3 |
| 20260508123005 | 38 | 179 | 3.0 | 6.0 | 0.00 | 0.00 | 0.00 | 84 | 1007.3 |
| 20260508121502 | 34 | 205 | 2.0 | 4.0 | 0.00 | 0.00 | 0.00 | 85 | 1007.4 |
| 20260508120100 | 33 | 163 | 2.0 | 5.0 | 0.00 | 0.00 | 0.00 | 84 | 1007.2 |
| 20260508114558 | 32 | 175 | 2.0 | 4.0 | 0.00 | 0.00 | 0.00 | 83 | 1007.2 |
| 20260508113054 | 31 | 257 | 2.0 | 4.0 | 0.00 | 0.00 | 0.00 | 81 | 1007.1 |
| 20260508111555 | 31 | 180 | 3.0 | 5.0 | 0.00 | 0.00 | 0.00 | 80 | 1007.2 |
| 20260508110050 | 31 | 173 | 2.0 | 3.0 | 0.00 | 0.00 | 0.00 | 79 | 1007.2 |
| 20260508104547 | 32 | 173 | 1.0 | 2.0 | 0.00 | 0.00 | 0.00 | 79 | 1007.2 |
| 20260508103047 | 32 | 173 | 1.0 | 3.0 | 0.00 | 0.00 | 0.00 | 79 | 1007.3 |
| 20260508101546 | 32 | 173 | 2.0 | 3.0 | 0.00 | 0.00 | 0.00 | 78 | 1007.4 |
| 20260508100044 | 32 | 173 | 2.0 | 3.0 | 0.00 | 0.00 | 0.00 | 77 | 1007.4 |
| 20260508094545 | 33 | 173 | 1.0 | 2.0 | 0.00 | 0.00 | 0.00 | 77 | 1007.5 |
| 20260508093037 | 33 | 173 | 0.0 | 0.0 | 0.00 | 0.00 | 0.00 | 77 | 1007.5 |
| 20260508091535 | 33 | 173 | 2.0 | 3.0 | 0.00 | 0.00 | 0.00 | 77 | 1007.6 |
| 20260508090036 | 34 | 173 | 1.0 | 3.0 | 0.00 | 0.00 | 0.00 | 77 | 1007.6 |
| 20260508084532 | 34 | 173 | 1.0 | 2.0 | 0.00 | 0.00 | 0.00 | 77 | 1007.6 |
| 20260508083029 | 34 | 175 | 1.0 | 3.0 | 0.00 | 0.00 | 0.00 | 77 | 1007.6 |
| 20260508081533 | 34 | 175 | 1.0 | 4.0 | 0.00 | 0.00 | 0.00 | 76 | 1007.7 |
| 20260508080027 | 34 | 360 | 3.0 | 4.0 | 0.00 | 0.00 | 0.00 | 75 | 1007.5 |
| 20260508074526 | 35 | 360 | 0.0 | 0.0 | 0.00 | 0.00 | 0.00 | 75 | 1007.5 |
| 20260508073024 | 35 | 360 | 0.0 | 2.0 | 0.00 | 0.00 | 0.00 | 75 | 1007.6 |
| 20260508071528 | 35 | 360 | 1.0 | 3.0 | 0.00 | 0.00 | 0.00 | 76 | 1007.8 |
| 20260508070022 | 35 | 360 | 1.0 | 4.0 | 0.00 | 0.00 | 0.00 | 76 | 1007.8 |
| 20260508064521 | 35 | 192 | 1.0 | 3.0 | 0.00 | 0.00 | 0.00 | 75 | 1007.8 |
| 20260508063019 | 35 | 192 | 1.0 | 3.0 | 0.00 | 0.00 | 0.00 | 73 | 1007.9 |
| 20260508061522 | 35 | 192 | 1.0 | 2.0 | 0.00 | 0.00 | 0.00 | 72 | 1008.0 |
| 20260508060014 | 35 | 192 | 2.0 | 3.0 | 0.00 | 0.00 | 0.00 | 71 | 1008.1 |
| 20260508054513 | 35 | 192 | 1.0 | 3.0 | 0.00 | 0.00 | 0.00 | 70 | 1008.1 |
| 20260508053010 | 36 | 192 | 2.0 | 3.0 | 0.00 | 0.00 | 0.00 | 69 | 1008.1 |
| 20260508051520 | 36 | 192 | 2.0 | 3.0 | 0.00 | 0.00 | 0.00 | 68 | 1008.2 |
| 20260508050009 | 37 | 192 | 1.0 | 3.0 | 0.00 | 0.00 | 0.00 | 67 | 1008.1 |
| 20260508044505 | 37 | 192 | 1.0 | 3.0 | 0.00 | 0.00 | 0.00 | 67 | 1008.2 |
| 20260508043004 | 38 | 187 | 2.0 | 3.0 | 0.00 | 0.00 | 0.00 | 65 | 1008.3 |
| 20260508041504 | 39 | 187 | 2.0 | 3.0 | 0.00 | 0.00 | 0.00 | 63 | 1008.4 |
| 20260508040008 | 39 | 187 | 2.0 | 4.0 | 0.00 | 0.00 | 0.00 | 62 | 1008.4 |
| 20260508034505 | 40 | 274 | 2.0 | 4.0 | 0.00 | 0.00 | 0.00 | 59 | 1008.5 |
| 20260508033005 | 41 | 275 | 2.0 | 3.0 | 0.00 | 0.00 | 0.00 | 56 | 1008.6 |
| 20260508031502 | 41 | 275 | 2.0 | 3.0 | 0.00 | 0.00 | 0.00 | 55 | 1008.6 |
| 20260508030002 | 42 | 275 | 1.0 | 2.0 | 0.00 | 0.00 | 0.00 | 53 | 1008.6 |
| 20260508024501 | 44 | 275 | 1.0 | 2.0 | 0.00 | 0.00 | 0.00 | 51 | 1008.6 |
| 20260508023101 | 45 | 275 | 1.0 | 2.0 | 0.00 | 0.00 | 0.00 | 49 | 1008.5 |
| 20260508021601 | 47 | 275 | 0.0 | 0.0 | 0.00 | 0.00 | 0.00 | 45 | 1008.5 |
| 20260508014600 | 51 | 275 | 0.0 | 3.0 | 0.00 | 0.00 | 0.00 | 37 | 1008.2 |
| 20260508013059 | 53 | 275 | 0.0 | 4.0 | 0.00 | 0.00 | 0.00 | 33 | 1008.3 |
| 20260508011607 | 54 | 271 | 2.0 | 4.0 | 0.00 | 0.00 | 0.00 | 31 | 1008.2 |
| 20260508010058 | 54 | 264 | 1.0 | 7.0 | 0.00 | 0.00 | 0.00 | 30 | 1008.1 |
| 20260508004600 | 55 | 257 | 3.0 | 10.0 | 0.00 | 0.00 | 0.00 | 30 | 1008.2 |
| 20260508003059 | 55 | 268 | 3.0 | 12.0 | 0.00 | 0.00 | 0.00 | 29 | 1008.3 |
| 20260508001558 | 55 | 190 | 3.0 | 10.0 | 0.00 | 0.00 | 0.00 | 30 | 1008.3 |
| 20260508000055 | 56 | 300 | 4.0 | 9.0 | 0.00 | 0.00 | 0.00 | 29 | 1008.4 |
| 20260507234602 | 56 | 169 | 4.0 | 10.0 | 0.00 | 0.00 | 0.00 | 31 | 1008.4 |
| 20260507233054 | 55 | 242 | 3.0 | 12.0 | 0.00 | 0.00 | 0.00 | 30 | 1008.5 |
| 20260507231557 | 56 | 279 | 8.0 | 12.0 | 0.00 | 0.00 | 0.00 | 28 | 1008.6 |
| 20260507230057 | 55 | 267 | 7.0 | 15.0 | 0.00 | 0.00 | 0.00 | 29 | 1008.7 |
| 20260507224552 | 57 | 227 | 8.0 | 15.0 | 0.00 | 0.00 | 0.00 | 28 | 1008.8 |
| 20260507223056 | 56 | 272 | 6.0 | 15.0 | 0.00 | 0.00 | 0.00 | 29 | 1008.8 |
| 20260507221550 | 55 | 261 | 9.0 | 17.0 | 0.00 | 0.00 | 0.00 | 29 | 1008.9 |
| 20260507220050 | 56 | 260 | 7.0 | 18.0 | 0.00 | 0.00 | 0.00 | 28 | 1009.1 |
| 20260507214547 | 56 | 270 | 5.0 | 13.0 | 0.00 | 0.00 | 0.00 | 27 | 1009.0 |
| 20260507213046 | 55 | 314 | 7.0 | 16.0 | 0.00 | 0.00 | 0.00 | 27 | 1009.0 |
| 20260507211545 | 57 | 264 | 13.0 | 21.0 | 0.00 | 0.00 | 0.00 | 29 | 1009.2 |
| 20260507210043 | 56 | 275 | 7.0 | 16.0 | 0.00 | 0.00 | 0.00 | 29 | 1009.2 |
| 20260507204542 | 54 | 252 | 10.0 | 18.0 | 0.00 | 0.00 | 0.00 | 28 | 1009.3 |
| 20260507203048 | 56 | 240 | 5.0 | 16.0 | 0.00 | 0.00 | 0.00 | 32 | 1009.6 |
| 20260507201540 | 55 | 274 | 5.0 | 23.0 | 0.00 | 0.00 | 0.00 | 30 | 1009.9 |
| 20260507200046 | 55 | 224 | 7.0 | 18.0 | 0.00 | 0.00 | 0.00 | 31 | 1010.0 |
| 20260507194534 | 53 | 321 | 7.0 | 21.0 | 0.00 | 0.00 | 0.00 | 30 | 1010.3 |
| 20260507193035 | 53 | 259 | 7.0 | 12.0 | 0.00 | 0.00 | 0.00 | 30 | 1010.3 |
| 20260507191532 | 53 | 226 | 7.0 | 19.0 | 0.00 | 0.00 | 0.00 | 31 | 1010.5 |
| 20260507190033 | 54 | 235 | 7.0 | 12.0 | 0.00 | 0.00 | 0.00 | 30 | 1010.5 |
| 20260507184530 | 53 | 315 | 7.0 | 15.0 | 0.00 | 0.00 | 0.00 | 33 | 1010.5 |
| 20260507183036 | 52 | 222 | 9.0 | 17.0 | 0.00 | 0.00 | 0.00 | 31 | 1010.8 |
| 20260507181526 | 52 | 282 | 7.0 | 18.0 | 0.00 | 0.00 | 0.00 | 34 | 1011.0 |
| 20260507180035 | 51 | 271 | 6.0 | 12.0 | 0.00 | 0.00 | 0.00 | 34 | 1011.1 |
| 20260507174528 | 51 | 297 | 5.0 | 15.0 | 0.00 | 0.00 | 0.00 | 37 | 1011.3 |
| 20260507173019 | 50 | 333 | 7.0 | 14.0 | 0.00 | 0.00 | 0.00 | 35 | 1011.6 |
| 20260507171517 | 50 | 328 | 6.0 | 16.0 | 0.00 | 0.00 | 0.00 | 34 | 1011.7 |
| 20260507170018 | 50 | 314 | 4.0 | 16.0 | 0.00 | 0.00 | 0.00 | 34 | 1011.7 |
| 20260507164514 | 49 | 165 | 9.0 | 16.0 | 0.00 | 0.00 | 0.00 | 33 | 1011.9 |